Ridgedale, MO

7:05 AM CST on February 28, 2017 (GMT -0600)
Branson

Weather History for KBBG - November, 2012

Change the Weather History Date:

Monday, November 26, 2012

  Actual Average (KHRO) Record (KHRO)
Temperature  
Mean Temperature 42 °F -  
Max Temperature 48 °F 54 °F 77 °F (1965)
Min Temperature 33 °F 37 °F 14 °F (1977)
Degree Days  
Heating Degree Days 24    
Moisture  
Dew Point 33 °F    
Average Humidity 68    
Maximum Humidity 76    
Minimum Humidity 58    
Precipitation  
Precipitation 0.00 in - - ()
Sea Level Pressure  
Sea Level Pressure 30.11 in    
Wind  
Wind Speed 6 mph (ENE)    
Max Wind Speed 14 mph    
Max Gust Speed 22 mph    
Visibility 10 miles    
Events Rain    
Averages and records for this station are not official NWS values.
T = Trace of Precipitation, MM = Missing Value Source: NWS Daily Summary

Daily Weather History Graph

Daily Weather History Graph

Search for Another Location

Airport or City:

Trip Planner

Search our weather history database for the weather conditions in past years. The results will help you decide how hot, cold, wet, or windy it might be!

Date:

Astronomy

Nov. 26, 2012 Rise Set
Actual Time 7:01 AM CST 4:58 PM CST
Civil Twilight 6:33 AM CST 5:26 PM CST
Nautical Twilight 6:02 AM CST 5:58 PM CST
Astronomical Twilight 5:31 AM CST 6:29 PM CST
Moon 3:49 PM CST (11/26) 5:14 AM CST (11/26)
Length of Visible Light 10h 52m
Length of Day
9h 56m
Waxing Gibbous, 97% of the Moon is Illuminated
Nov 26
Waxing Gibbous
Nov 28
Full
Dec 6
Last Quarter
Dec 13
New
Dec 19
First Quarter

Hourly Weather History & Observations

Time (CST) Temp. Windchill Dew Point Humidity Pressure Visibility Wind Dir Wind Speed Gust Speed Precip Events Conditions
12:15 AM 48.2 °F - 33.8 °F 58% 29.97 in 10.0 mi SSE 5.8 mph - N/A   Partly Cloudy
12:35 AM 46.4 °F 43.5 °F 35.6 °F 66% 29.97 in 10.0 mi SSE 5.8 mph - N/A   Partly Cloudy
12:55 AM 48.2 °F - 35.6 °F 62% 29.97 in 10.0 mi SE 3.5 mph - N/A   Scattered Clouds
1:15 AM 44.6 °F 42.2 °F 35.6 °F 71% 29.96 in 10.0 mi SE 4.6 mph - N/A   Scattered Clouds
1:35 AM 44.6 °F 42.2 °F 35.6 °F 71% 29.96 in 10.0 mi SSE 4.6 mph - N/A   Scattered Clouds
1:55 AM 44.6 °F 41.4 °F 35.6 °F 71% 29.96 in 10.0 mi SE 5.8 mph - N/A   Scattered Clouds
2:15 AM 44.6 °F 41.4 °F 35.6 °F 71% 29.96 in 10.0 mi SE 5.8 mph - N/A   Mostly Cloudy
2:35 AM 48.2 °F - 35.6 °F 62% 29.96 in 10.0 mi ESE 4.6 mph - N/A   Overcast
2:55 AM 48.2 °F - 35.6 °F 62% 29.96 in 10.0 mi ESE 4.6 mph - N/A   Overcast
3:15 AM 48.2 °F - 37.4 °F 66% 29.96 in 10.0 mi East 3.5 mph - N/A   Overcast
3:35 AM 46.4 °F 45.2 °F 37.4 °F 71% 29.96 in 10.0 mi ESE 3.5 mph - N/A   Overcast
3:55 AM 46.4 °F - 35.6 °F 66% 29.96 in 10.0 mi Calm Calm - N/A   Overcast
4:15 AM 46.4 °F 44.3 °F 35.6 °F 66% 29.96 in 10.0 mi ESE 4.6 mph - N/A   Overcast
4:35 AM 46.4 °F 44.3 °F 35.6 °F 66% 29.96 in 10.0 mi ESE 4.6 mph - N/A   Overcast
4:55 AM 46.4 °F 43.5 °F 35.6 °F 66% 29.96 in 10.0 mi ESE 5.8 mph - N/A   Overcast
5:15 AM 46.4 °F 43.5 °F 37.4 °F 71% 29.97 in 10.0 mi ESE 5.8 mph - N/A   Overcast
5:35 AM 46.4 °F 42.9 °F 35.6 °F 66% 29.97 in 10.0 mi ESE 6.9 mph - N/A   Overcast
6:47 AM 46.4 °F 43.5 °F 37.4 °F 71% 29.98 in 10.0 mi ESE 5.8 mph - N/A   Overcast
7:55 AM 46.4 °F 44.3 °F 37.4 °F 71% 30.01 in 10.0 mi East 4.6 mph - N/A   Overcast
8:48 AM 46.4 °F 44.3 °F 37.4 °F 71% 30.01 in 10.0 mi ESE 4.6 mph - N/A   Overcast
9:47 AM 46.4 °F 42.4 °F 35.6 °F 66% 30.05 in 10.0 mi NE 8.1 mph - N/A   Overcast
10:46 AM 46.4 °F 44.3 °F 35.6 °F 66% 30.06 in 10.0 mi NNE 4.6 mph - N/A   Overcast
11:46 AM 46.4 °F 45.2 °F 35.6 °F 66% 30.06 in 10.0 mi NNE 3.5 mph - N/A   Overcast
12:47 PM 46.4 °F 42.9 °F 35.6 °F 66% 30.05 in 10.0 mi NNE 6.9 mph - N/A   Overcast
1:50 PM 44.6 °F 40.2 °F 35.6 °F 71% 30.07 in 7.0 mi NNE 8.1 mph - N/A Rain Light Rain
2:55 PM 41.0 °F 33.9 °F 33.8 °F 76% 30.10 in 10.0 mi NNE 12.7 mph - N/A   Overcast
3:55 PM 41.0 °F 33.9 °F 32.0 °F 70% 30.14 in 10.0 mi North 12.7 mph 20.7 mph N/A   Overcast
4:46 PM 41.0 °F 33.5 °F 32.0 °F 70% 30.18 in 10.0 mi North 13.8 mph 21.9 mph N/A   Overcast
5:45 PM 41.0 °F 34.7 °F 32.0 °F 70% 30.22 in 10.0 mi NNE 10.4 mph 16.1 mph N/A   Overcast
6:50 PM 39.2 °F 33.6 °F 26.6 °F 61% 30.26 in 10.0 mi NNE 8.1 mph 16.1 mph N/A   Overcast
7:45 PM 37.4 °F 29.8 °F 28.4 °F 70% 30.29 in 10.0 mi NE 11.5 mph 16.1 mph N/A   Overcast
8:15 PM 37.4 °F 30.3 °F 28.4 °F 70% 30.31 in 10.0 mi NE 10.4 mph 16.1 mph N/A   Overcast
8:35 PM 37.4 °F 32.8 °F 28.4 °F 70% 30.31 in 10.0 mi NNE 5.8 mph - N/A   Overcast
8:55 PM 37.4 °F 33.8 °F 28.4 °F 70% 30.32 in 10.0 mi NE 4.6 mph - N/A   Overcast
9:15 PM 37.4 °F 33.8 °F 28.4 °F 70% 30.32 in 10.0 mi North 4.6 mph - N/A   Overcast
9:35 PM 37.4 °F 32.1 °F 28.4 °F 70% 30.32 in 10.0 mi North 6.9 mph - N/A   Overcast
9:55 PM 37.4 °F 32.8 °F 28.4 °F 70% 30.33 in 10.0 mi North 5.8 mph - N/A   Overcast
10:15 PM 37.4 °F 32.1 °F 28.4 °F 70% 30.33 in 10.0 mi North 6.9 mph - N/A   Overcast
10:35 PM 37.4 °F 32.1 °F 28.4 °F 70% 30.33 in 10.0 mi North 6.9 mph - N/A   Overcast
10:55 PM 37.4 °F 30.8 °F 26.6 °F 65% 30.33 in 10.0 mi North 9.2 mph - N/A   Overcast
11:15 PM 35.6 °F 29.2 °F 26.6 °F 70% 30.33 in 10.0 mi North 8.1 mph - N/A   Mostly Cloudy
11:35 PM 35.6 °F 28.6 °F 26.6 °F 70% 30.34 in 10.0 mi North 9.2 mph - N/A   Partly Cloudy
11:55 PM 33.8 °F 27.7 °F 26.6 °F 75% 30.35 in 10.0 mi North 6.9 mph - N/A   Scattered Clouds